Wind_Speed
2 2 4 8 9 8 7 8 11 10 5 4 4 5 7 7 11 9 5 5 5 6 11 14 17 18 14 12 13 16 16 13 12 10 10 10 9 8 9 10 11 12 13 14 18 21 21 26 31 32 34 34 35 37 38 39 40 42 42 42 43 45 44 43 42 41 40 38 37 35 35 36 35 35 35 34 34 33 33 33 32 33 34 33 30 29
1 4 11 10 5 5 7 8 10 11 9 9 8 8 8 7 9 7 3 6 2 5 12 11 12 17 16 12 11 12 16 18 15 12 13 15 13 11 10 12 12 10 10 11 12 14 19 24 27 29 31 31 33 36 39 41 43 43 42 42 43 44 44 44 44 43 42 42 40 38 37 37 36 36 36 35 35 34 33 33 33 33 33 33 32 30
1 7 13 8 4 5 7 8 9 11 11 10 8 8 10 10 8 5 3 5 2 4 9 8 9 15 13 10 12 13 16 19 13 10 15 16 15 14 13 13 13 12 11 12 12 11 15 21 25 27 28 31 35 37 40 41 41 40 40 42 43 43 44 46 46 45 44 44 42 39 38 38 37 36 37 36 35 34 34 33 34 33 33 33 33 32
4 9 10 6 6 6 7 8 8 8 8 8 8 8 11 11 7 4 4 4 3 5 5 4 7 12 9 6 11 14 15 17 12 12 15 14 15 17 16 14 13 15 15 15 15 12 12 16 20 24 27 32 35 36 36 37 39 39 41 44 43 43 44 45 45 45 44 42 40 38 37 36 36 34 35 34 33 33 34 34 34 34 34 33 33 33
11 11 5 7 9 9 10 10 8 7 6 8 10 10 12 12 8 6 5 4 4 5 4 3 7 11 8 8 11 11 10 14 14 14 15 14 16 17 15 15 15 15 16 16 16 13 11 13 17 24 29 32 33 34 35 38 41 42 43 44 43 42 42 44 45 44 42 39 37 36 31 29 30 28 28 30 31 32 33 35 36 35 33 33 32 32
15 14 5 7 10 11 12 10 9 9 7 9 11 14 17 13 7 6 6 3 5 7 5 3 6 11 8 9 12 10 8 14 14 13 18 17 17 17 16 17 17 16 17 17 16 14 12 13 16 23 28 29 30 34 39 41 44 44 42 41 41 41 42 43 45 44 42 39 38 37 32 29 28 26 27 32 33 34 36 38 37 35 34 33 32 32
10 12 7 10 12 10 11 10 10 11 8 8 8 13 17 12 7 8 7 4 4 7 4 4 5 11 10 9 12 11 10 16 14 12 20 19 15 15 15 16 16 16 17 17 17 16 15 15 15 18 25 29 32 38 41 40 41 41 39 40 42 43 43 43 44 43 43 41 41 41 39 36 34 31 32 36 36 37 39 39 37 37 35 34 34 32
6 8 8 10 12 9 9 9 11 11 9 9 6 9 11 11 12 13 11 8 6 7 4 2 5 9 13 10 10 11 10 14 16 15 20 18 13 14 15 16 17 17 17 16 17 17 18 17 15 17 24 31 36 38 38 37 37 38 39 41 42 42 42 42 43 44 45 44 43 43 41 39 38 37 36 37 36 37 38 38 38 37 36 35 34 33
3 4 7 11 10 8 9 10 11 11 8 10 6 6 8 11 13 13 11 8 7 7 5 4 5 6 14 9 3 7 9 13 19 18 18 17 14 14 14 15 17 18 18 17 17 17 17 16 16 21 26 31 35 35 35 36 36 38 39 39 39 40 40 41 43 44 46 46 44 43 41 39 39 38 36 34 34 35 36 37 38 37 37 36 35 34
2 2 4 6 7 8 10 12 12 10 9 10 6 5 6 7 8 9 8 6 6 8 8 8 7 5 14 9 4 4 7 12 16 12 12 13 13 12 12 15 17 16 15 16 17 17 16 17 21 26 27 28 31 33 34 35 34 35 36 36 37 39 40 40 42 44 45 45 43 42 41 39 37 35 33 31 32 34 35 36 37 37 38 37 36 35
7 4 2 3 6 6 7 9 9 10 12 12 5 3 6 6 4 4 4 4 6 8 10 13 12 9 12 9 6 6 7 9 9 7 7 9 10 11 11 13 15 14 13 14 15 17 17 18 21 22 23 27 28 29 32 33 33 35 35 36 38 38 39 39 41 43 44 45 44 43 42 41 38 35 33 32 32 33 34 36 37 38 38 38 37 36
8 7 4 5 7 5 3 4 5 6 10 11 6 4 5 5 4 3 2 4 7 8 10 14 14 12 12 9 6 7 7 6 7 9 9 9 10 11 9 10 12 12 12 12 13 14 13 13 15 15 18 23 24 26 30 32 33 34 35 37 37 37 39 40 41 44 45 45 45 44 42 41 40 38 37 36 35 36 37 37 37 37 38 38 38 36
5 6 6 6 7 8 7 5 4 4 6 8 6 5 6 4 4 5 4 6 8 8 10 12 10 9 12 16 12 9 8 6 7 8 7 8 11 10 9 9 10 10 10 10 10 11 10 9 10 10 12 16 20 24 28 30 31 32 34 36 37 38 40 41 42 44 45 46 46 45 43 41 40 39 39 38 37 37 38 38 37 37 38 38 38 37
2 4 6 6 4 6 9 8 6 5 5 7 8 7 6 4 4 6 6 6 6 8 12 9 8 6 8 15 16 14 15 15 15 16 13 13 13 12 10 8 8 8 9 9 9 9 9 9 8 8 9 12 18 23 26 28 31 32 33 35 36 37 39 41 42 43 44 45 46 45 43 41 40 40 39 38 37 38 38 39 39 39 40 40 39 38
4 4 2 3 1 2 5 8 8 7 6 7 8 8 8 6 4 4 4 6 5 7 8 6 7 6 7 12 10 9 15 17 17 20 17 15 14 12 10 9 9 9 8 8 8 9 10 10 9 8 9 14 19 23 25 28 30 31 33 35 37 36 38 40 41 42 43 43 43 43 42 41 40 40 39 38 38 38 39 39 39 40 40 40 40 38
3 5 1 2 4 3 2 4 4 6 7 6 6 7 9 8 6 6 5 5 4 5 5 4 5 4 5 15 10 6 9 8 8 13 10 11 13 11 11 12 12 11 10 10 8 9 10 10 9 8 9 15 20 22 25 28 30 32 33 34 36 37 38 40 40 41 42 42 42 42 42 41 40 39 39 38 38 38 39 40 40 40 41 40 38 36
1 3 4 9 9 1 1 6 4 4 4 4 7 9 9 8 7 8 8 5 4 6 5 4 4 2 3 15 12 10 12 7 8 13 10 10 12 10 10 10 10 11 11 11 9 8 9 9 9 8 10 15 19 21 25 28 32 34 34 34 35 35 36 38 40 41 41 41 40 41 41 41 40 40 39 39 38 38 39 40 40 40 40 39 36 34
1 5 6 8 8 2 3 8 7 6 3 2 6 6 6 6 5 5 6 6 7 7 5 7 8 5 5 9 5 4 11 11 13 16 14 14 12 11 12 9 8 10 10 9 9 8 8 8 8 8 11 15 19 22 25 28 30 32 33 34 35 35 36 38 40 40 40 40 39 38 39 40 40 40 39 39 38 39 40 40 40 40 39 38 36 34
1 3 5 3 6 7 5 6 7 4 4 3 5 4 2 5 5 5 6 6 7 7 6 9 11 7 8 10 6 4 6 6 8 9 9 12 11 10 13 12 11 10 9 9 8 7 8 9 9 9 10 14 17 20 22 24 25 27 28 31 32 34 35 36 37 37 37 37 37 37 38 39 39 39 39 38 39 40 41 41 41 40 39 37 35 34
2 1 3 1 3 8 5 1 3 4 2 1 3 4 2 4 4 5 6 4 5 7 7 9 10 7 7 10 13 12 8 6 8 9 9 11 11 9 10 11 12 11 10 9 8 8 9 10 10 9 11 14 16 18 19 20 22 24 26 27 29 30 31 32 34 34 34 34 34 34 36 38 38 38 38 38 39 40 41 42 41 40 38 37 35 34
2 2 4 2 5 6 4 1 0 2 4 3 3 4 4 4 4 4 4 5 5 7 7 8 8 5 5 8 11 11 8 7 7 9 10 11 13 12 9 9 10 9 9 9 7 7 8 9 9 9 11 13 15 15 17 19 22 24 25 26 27 27 29 31 32 33 33 33 33 33 35 36 36 37 38 39 40 41 41 41 41 39 38 37 36 34
2 2 4 3 3 4 6 4 3 3 4 3 3 3 3 2 4 5 4 4 4 5 6 7 8 5 3 2 1 5 6 6 8 9 9 11 13 14 13 12 11 8 7 9 9 8 7 8 8 7 7 9 11 12 15 18 20 21 23 24 25 26 28 29 30 31 32 32 32 33 34 36 36 37 38 39 40 41 41 41 40 39 38 37 36 33
4 2 4 5 5 6 8 8 8 8 7 7 5 1 1 0 0 1 3 3 4 6 6 6 7 6 2 6 9 9 8 8 9 11 12 12 12 13 15 16 15 12 8 7 8 7 6 5 4 4 5 6 8 11 13 16 18 20 22 23 24 25 26 27 29 30 31 31 32 33 34 36 37 38 39 39 40 40 41 41 40 39 38 36 34 32
4 2 3 5 4 6 8 8 7 7 6 5 2 3 3 0 1 2 3 4 4 6 5 4 6 6 4 8 9 9 10 11 10 13 13 12 12 14 15 15 16 16 14 9 6 4 4 2 1 3 4 5 6 9 11 14 16 18 20 21 23 24 25 26 28 30 30 31 32 33 34 35 36 37 38 38 39 40 41 41 40 39 37 35 33 32
2 2 2 1 3 5 6 5 3 2 1 1 1 2 1 1 1 1 3 2 3 5 3 1 4 5 2 7 8 9 13 15 14 14 14 12 12 14 14 14 14 15 16 14 10 6 5 4 2 1 3 3 5 7 10 12 14 16 18 20 22 23 25 26 28 29 31 31 32 32 33 34 34 36 37 38 40 41 41 41 39 38 36 35 33 31
2 3 3 3 4 5 5 4 3 1 1 1 1 2 3 2 2 3 3 2 4 6 3 1 5 10 14 16 12 10 13 16 16 17 15 13 12 13 13 13 14 14 14 15 12 8 5 4 2 1 2 3 5 6 8 10 12 14 16 19 21 23 24 25 27 29 30 30 31 31 32 33 34 35 37 38 40 41 40 40 38 37 36 34 32 31
3 3 4 6 9 9 9 9 4 0 3 5 6 5 5 4 4 4 3 3 4 6 7 6 6 12 19 19 16 14 14 15 15 16 15 13 13 14 13 13 14 14 14 15 12 10 7 4 3 2 2 3 5 8 10 11 13 14 15 18 20 21 23 24 26 28 29 29 30 31 32 34 35 37 38 39 40 40 39 38 37 36 34 33 32 30
3 5 7 9 13 12 10 10 7 3 6 10 10 10 8 7 7 6 6 7 6 5 8 7 3 8 17 19 18 17 14 14 14 13 13 12 11 13 13 13 15 16 16 16 15 14 12 8 6 4 4 4 4 7 10 12 14 16 18 20 20 20 21 24 25 27 28 29 30 31 33 35 36 38 39 39 39 38 37 37 36 35 33 32 31 30
4 6 7 8 12 13 10 11 11 8 10 10 10 12 11 8 9 10 9 9 7 5 8 10 7 9 16 21 20 16 13 13 12 10 10 10 10 12 13 14 15 15 16 17 17 16 14 11 9 7 6 5 3 5 8 11 14 15 17 20 21 21 22 23 25 26 27 27 29 30 33 34 35 36 36 36 36 36 36 36 35 34 32 31 30 28
4 5 7 6 9 14 12 12 12 11 11 10 11 13 12 11 12 12 10 9 9 9 11 15 16 14 16 21 22 16 11 9 8 8 10 10 9 11 13 14 14 13 14 15 16 15 14 12 12 10 8 6 5 6 8 10 13 16 17 19 20 22 23 24 26 26 26 27 29 31 32 33 33 33 33 34 34 35 35 35 33 32 31 30 29 27
4 5 5 6 5 12 14 12 9 9 10 11 11 11 12 13 13 12 11 10 10 10 12 16 17 14 15 17 17 12 7 6 7 10 11 10 10 11 12 13 13 12 12 13 14 14 14 14 13 12 11 9 7 8 10 12 14 15 17 18 20 22 23 25 27 27 27 28 29 30 30 31 32 32 32 33 34 34 34 34 33 32 31 30 28 27
5 3 1 5 5 10 9 5 5 5 3 8 12 13 16 15 12 11 10 9 10 10 12 14 12 11 13 13 11 9 6 7 10 11 10 10 10 11 12 12 12 11 11 12 12 13 14 14 14 14 12 11 11 12 12 12 13 15 17 19 21 22 22 24 26 27 28 28 28 27 28 30 31 31 32 33 33 34 33 32 32 31 30 30 28 27
6 4 2 5 6 7 3 4 6 5 4 5 12 14 16 15 12 11 10 11 13 11 10 11 9 10 14 13 11 12 10 8 9 9 9 11 12 11 12 11 10 9 9 11 11 11 12 12 11 12 11 11 13 17 18 13 13 15 18 20 20 20 20 22 24 25 26 27 27 27 29 30 30 31 32 33 33 33 32 31 31 31 31 30 29 27
6 7 5 4 4 5 2 7 7 4 2 8 7 4 7 12 14 15 14 15 15 12 11 12 10 12 15 13 13 15 12 8 10 10 10 11 11 11 10 7 7 8 9 10 10 10 11 11 11 13 16 18 21 22 20 14 12 13 13 15 17 18 20 23 23 23 24 24 25 28 29 29 30 31 32 32 32 32 31 31 32 31 31 30 29 28
7 7 5 4 4 4 3 6 3 4 8 9 7 5 6 10 13 14 14 14 14 13 13 14 13 14 15 14 12 14 15 13 12 11 11 11 9 8 6 4 4 6 7 8 10 11 11 12 13 15 19 23 25 26 25 18 13 13 11 11 14 17 20 23 23 23 23 24 24 26 28 29 30 31 30 30 30 30 31 31 31 31 30 30 29 29
9 7 4 4 4 3 3 3 4 5 6 9 12 10 8 7 9 10 11 13 14 14 14 13 13 14 15 16 14 13 15 13 10 8 8 8 6 4 2 2 4 6 6 7 9 10 12 13 15 17 21 24 25 26 28 29 23 14 10 10 12 17 19 20 21 22 23 24 25 26 28 30 31 30 29 29 29 30 31 31 31 31 31 30 30 29
9 7 5 4 4 4 5 5 3 4 9 12 15 13 7 6 8 7 7 10 10 10 11 11 12 14 15 15 14 12 12 10 9 7 4 3 3 2 3 3 4 5 6 6 8 10 14 17 18 20 24 26 26 27 29 32 30 18 9 9 10 14 16 17 19 21 22 24 26 28 29 30 31 31 29 29 30 31 32 32 32 32 31 31 30 30
11 8 7 6 6 5 5 4 3 5 8 11 18 15 6 6 7 5 2 6 6 6 9 10 13 15 14 14 14 11 9 9 10 6 0 2 2 2 3 3 4 5 6 7 9 12 15 19 20 21 24 24 26 29 31 32 31 22 11 6 7 10 12 14 18 20 22 25 27 29 30 32 33 32 31 31 32 33 34 33 32 32 32 32 31 32
12 9 7 7 6 5 5 5 6 8 9 12 20 16 2 7 6 2 3 6 10 11 11 12 14 15 13 13 13 8 6 8 8 3 0 1 2 1 0 1 3 4 5 8 10 11 15 19 20 21 23 23 25 30 32 31 29 23 15 8 4 6 9 13 18 19 22 25 28 29 31 32 33 32 32 33 34 35 34 33 32 32 32 32 31 31
12 9 7 7 7 9 9 6 5 6 8 12 16 9 4 7 5 6 2 9 12 10 11 12 13 13 11 11 9 5 5 6 5 3 2 3 2 1 0 2 4 5 6 9 11 12 14 17 18 18 19 20 23 27 29 29 27 23 19 15 8 4 7 11 15 17 19 23 25 27 30 32 33 32 33 34 35 35 34 33 32 31 31 31 30 29
10 9 8 8 9 12 12 8 5 6 8 12 12 4 6 7 6 4 6 8 4 4 6 7 9 9 8 7 5 4 4 3 2 3 4 4 3 2 2 3 5 6 7 9 11 13 13 14 14 16 16 18 21 23 25 26 23 21 21 18 13 11 14 16 17 16 16 17 20 24 28 30 32 33 34 34 33 32 32 32 32 31 32 31 30 28
7 7 7 8 9 8 8 7 6 5 7 11 10 5 8 6 2 7 9 2 2 7 6 6 9 9 7 6 5 4 3 1 2 4 4 3 3 4 4 5 5 6 9 11 12 14 15 13 14 15 17 18 20 21 22 22 20 20 20 17 16 19 21 20 19 18 15 14 16 20 24 28 30 32 33 33 30 27 28 29 30 30 31 30 29 28
10 7 6 7 7 6 5 5 5 7 12 14 9 5 7 7 7 9 6 2 5 8 7 7 10 8 6 6 5 4 4 3 3 4 3 2 2 2 4 6 6 6 9 11 12 14 15 13 13 15 16 16 17 18 20 19 18 18 18 18 21 25 24 21 20 19 16 15 15 17 20 25 28 30 32 32 31 28 27 27 28 28 28 28 27 26
7 7 6 8 8 7 7 9 9 10 10 9 9 7 8 9 8 6 5 6 6 6 5 7 7 5 6 6 5 5 5 4 4 5 3 2 2 2 2 4 5 7 9 10 12 14 14 11 12 14 15 15 15 16 17 17 16 17 17 20 25 28 25 23 22 20 18 16 15 16 18 21 25 28 31 32 31 29 28 27 27 27 27 28 28 26
10 13 9 8 9 9 8 8 9 9 4 4 6 7 8 8 8 6 6 7 6 5 5 4 5 5 6 6 5 5 5 4 5 4 3 2 2 3 3 3 4 6 9 12 14 17 16 13 13 13 14 14 14 15 16 17 15 15 16 22 26 27 26 25 23 22 21 18 15 16 16 19 22 26 29 30 29 30 29 28 27 27 27 28 28 27
11 11 5 2 5 6 5 4 5 6 4 4 5 5 6 7 7 6 6 7 6 5 5 5 6 6 6 6 6 5 5 6 5 4 3 3 2 2 3 4 5 7 10 12 15 18 18 16 15 14 14 15 14 14 16 17 14 13 16 21 24 25 26 25 23 23 23 20 16 15 15 17 20 23 26 27 28 30 30 30 30 29 29 29 29 28
6 8 5 3 5 6 5 7 8 8 6 6 6 5 5 5 5 6 6 7 6 6 6 7 7 8 7 7 7 7 7 5 4 4 3 3 1 2 4 5 5 7 9 11 15 17 16 15 15 16 17 17 16 16 17 15 12 14 18 21 23 24 25 24 23 23 22 21 19 15 14 17 19 20 23 25 27 28 29 30 31 30 29 29 28 26
5 7 6 4 6 6 4 6 6 4 3 5 6 5 4 5 6 6 6 6 6 6 6 7 8 8 7 6 7 7 7 5 5 5 2 3 2 2 4 5 6 6 7 9 12 14 14 14 15 16 17 17 18 19 18 14 13 16 20 23 24 24 23 22 23 22 21 21 20 16 14 16 18 19 21 24 27 28 29 30 30 30 31 32 33 31
5 6 6 5 6 4 4 4 3 2 1 4 6 5 5 5 6 6 7 7 7 7 7 7 7 7 7 7 7 7 7 6 5 4 2 3 3 3 3 4 6 7 7 8 9 10 11 13 15 16 16 18 20 21 19 16 15 16 19 24 28 26 22 20 21 21 19 19 19 17 14 14 17 19 21 23 25 28 30 32 33 33 34 35 36 36
6 6 5 4 5 5 7 7 6 4 4 5 5 6 6 6 5 6 7 8 8 8 7 7 7 6 5 4 3 5 7 4 2 2 3 4 4 4 4 4 5 7 7 8 8 9 10 12 14 15 15 17 19 20 19 18 16 15 19 27 31 29 25 22 19 18 18 19 18 17 14 13 15 17 19 21 23 26 28 30 32 33 33 33 34 36
6 6 7 6 7 7 7 5 5 4 3 5 4 5 5 5 6 7 8 8 8 7 5 6 7 7 3 3 4 1 2 4 4 4 4 5 4 4 5 6 6 7 8 8 8 9 11 13 13 13 15 17 18 19 20 20 18 16 22 29 32 29 27 24 18 16 17 18 19 19 17 14 14 16 18 20 22 23 24 24 26 28 30 30 31 32
Wind_Direction
169 182 220 222 224 217 202 207 227 244 265 269 274 269 250 243 254 249 242 251 192 207 242 230 242 254 247 242 243 255 262 253 246 246 254 259 257 250 242 242 237 236 242 246 248 244 237 235 234 231 230 228 227 227 225 223 222 221 219 217 217 218 218 216 215 214 213 210 210 211 212 214 216 218 219 221 224 225 226 226 225 225 224 224 221 219
92 206 232 231 216 184 187 206 224 239 254 263 264 270 270 250 256 259 251 279 234 216 251 245 251 258 250 245 244 250 261 258 246 241 251 253 253 252 245 246 244 242 250 255 254 243 235 235 232 230 228 225 224 225 223 222 222 220 217 216 217 216 214 214 214 212 211 210 210 209 210 212 214 216 216 219 222 224 225 225 224 224 223 222 220 218
212 234 240 229 170 173 194 207 216 226 234 244 249 258 264 251 262 284 247 271 249 205 255 265 262 262 253 242 245 241 248 256 247 227 242 248 250 251 247 247 249 250 254 253 250 241 233 232 229 227 225 223 224 225 223 221 221 218 215 216 216 214 212 213 213 212 212 212 212 212 212 214 214 216 218 220 223 224 224 224 223 223 222 222 221 219
234 243 236 205 185 201 221 219 211 224 229 229 234 240 252 251 255 279 266 262 236 213 254 288 278 270 259 240 247 243 243 258 258 236 239 242 246 249 246 246 246 246 250 250 246 239 232 230 226 223 222 222 223 223 222 219 218 216 215 215 214 213 212 211 211 212 213 212 211 212 215 216 214 216 218 219 223 224 223 223 222 222 222 221 221 221
247 254 221 189 207 209 223 231 215 222 236 229 227 230 245 249 236 246 279 296 292 269 260 299 297 276 245 226 247 248 243 256 255 246 245 240 242 248 248 247 245 244 248 249 246 237 227 227 224 220 220 221 220 220 219 216 216 215 215 215 213 212 211 210 211 211 211 208 206 206 208 209 209 212 213 213 218 220 220 221 220 219 219 218 218 218
251 253 213 199 222 213 220 232 217 214 234 241 227 225 238 243 231 244 270 288 294 277 241 198 276 278 248 215 238 243 233 246 246 245 248 240 235 241 244 245 243 242 245 247 248 240 229 227 224 221 220 219 219 220 220 218 217 216 215 214 212 211 211 211 211 209 207 204 201 199 197 196 198 202 206 208 212 214 215 216 216 215 215 214 215 216
250 246 208 219 234 223 225 231 220 213 227 249 220 211 231 234 219 234 238 219 236 257 252 165 222 277 274 224 226 228 225 242 243 240 247 244 234 233 237 241 242 242 243 246 247 242 235 230 224 222 219 216 219 221 221 220 218 217 214 213 213 212 212 211 209 207 205 203 201 201 200 198 197 200 206 210 213 214 214 213 213 212 212 213 214 216
232 237 192 213 234 230 231 230 223 209 214 247 215 183 213 215 212 224 226 218 222 251 284 163 191 269 275 245 215 206 210 246 250 240 246 249 240 234 233 237 240 239 240 241 241 238 235 233 225 223 221 218 221 222 220 219 217 216 215 214 213 212 211 210 208 207 205 203 202 202 203 203 203 205 208 210 211 213 213 211 212 212 213 214 215 217
219 231 191 202 220 227 231 233 228 210 219 255 237 186 201 207 211 217 220 224 231 242 248 201 185 251 269 262 171 177 196 236 247 240 243 249 245 240 235 236 240 239 238 239 240 238 235 235 229 227 226 224 224 222 219 218 217 216 215 213 212 211 210 209 207 206 205 205 204 203 203 204 207 209 210 210 208 209 210 209 210 212 212 213 215 217
274 225 204 205 218 224 228 236 234 213 225 256 242 200 226 228 214 212 217 214 220 234 230 212 189 220 267 265 135 153 202 224 243 245 242 249 248 244 235 234 239 240 240 240 242 242 236 234 232 230 230 228 226 222 220 219 216 215 213 210 210 209 208 207 206 206 205 205 205 204 204 204 206 206 206 206 205 206 207 207 209 210 211 212 213 215
257 249 252 233 236 234 229 240 241 220 225 245 246 215 247 248 211 211 219 188 214 237 228 220 202 199 260 264 159 186 221 215 245 265 249 249 249 243 234 231 237 239 239 238 241 244 240 238 238 233 231 230 226 221 220 218 215 212 210 208 209 208 207 206 205 205 205 205 205 206 206 205 204 202 200 200 200 201 202 204 207 209 211 213 214 215
242 244 243 222 220 224 254 266 256 233 223 231 233 218 246 245 201 206 171 178 223 236 224 222 209 197 241 258 173 195 237 215 231 252 252 257 256 251 245 239 240 240 242 241 241 247 248 245 241 233 230 229 224 218 216 215 213 210 208 207 207 207 206 205 205 205 205 205 206 207 207 207 205 202 199 198 198 199 200 202 205 207 210 213 214 216
235 217 218 224 215 210 233 261 268 254 227 227 221 207 228 225 207 213 188 201 224 232 234 221 198 196 239 257 244 240 275 276 249 247 248 256 262 262 256 247 248 251 252 250 248 251 252 247 235 226 229 226 219 216 215 213 210 208 208 206 205 206 205 204 204 204 205 205 206 207 207 207 205 204 202 201 201 200 200 201 202 203 206 209 210 212
270 204 205 214 222 215 220 226 236 232 207 221 215 205 220 208 216 221 198 216 221 229 242 214 185 205 238 256 250 236 253 264 264 263 255 251 259 263 261 256 255 258 257 255 254 254 251 245 232 219 220 220 218 218 214 211 209 207 207 206 206 207 205 203 204 204 205 206 206 207 207 207 205 204 204 203 203 202 201 201 201 202 204 205 206 207
260 266 228 182 248 311 248 234 239 233 213 221 215 211 221 213 234 239 199 220 216 228 243 189 184 205 206 245 242 202 229 242 250 260 261 261 262 261 265 267 262 260 259 255 250 250 249 244 235 221 215 217 218 216 212 210 208 206 206 206 206 206 204 204 204 203 205 206 206 207 207 207 206 205 205 205 205 204 202 202 201 202 203 203 204 204
257 263 344 350 313 344 314 303 292 250 236 234 225 225 225 215 234 253 243 233 207 237 245 180 214 220 222 262 258 189 225 234 245 261 265 269 267 263 263 261 262 263 259 254 246 243 247 245 237 226 216 218 218 216 211 207 205 204 205 206 206 206 204 203 203 204 205 206 206 206 206 206 206 205 205 204 204 204 203 202 201 202 204 204 203 203
267 273 344 335 320 17 64 331 314 236 249 251 229 234 234 220 226 246 258 252 223 247 233 181 238 267 285 276 259 222 238 241 253 260 253 254 261 266 264 257 260 263 259 259 255 244 243 241 238 232 221 215 213 213 212 208 205 203 203 203 204 205 204 203 203 204 205 205 205 206 205 204 204 204 204 203 202 202 203 203 202 203 204 204 204 205
228 284 300 312 303 301 8 325 289 230 206 237 245 252 251 240 236 239 251 244 232 248 237 208 227 205 212 261 272 237 244 234 238 249 253 257 258 265 269 263 256 256 258 262 258 250 248 244 242 240 233 222 212 210 212 211 208 205 203 202 201 201 201 202 203 204 205 204 204 204 203 203 203 203 203 202 201 201 201 201 202 203 204 204 206 207
71 298 280 257 274 300 344 331 299 259 161 201 271 305 264 234 238 222 227 238 231 238 240 229 232 208 203 239 271 284 267 259 261 263 264 263 260 264 274 277 269 262 263 264 253 244 244 240 234 228 230 226 218 214 213 211 209 206 205 204 202 202 202 202 202 203 204 204 203 203 202 201 202 202 201 200 200 200 199 200 201 203 205 206 206 206
111 283 260 192 313 321 332 301 295 327 20 355 307 317 263 238 255 235 225 242 240 239 239 232 232 218 203 235 255 260 265 285 289 281 269 263 261 255 256 264 267 265 264 262 250 239 239 239 236 226 220 219 216 215 212 208 207 205 205 205 203 203 202 201 202 202 202 203 202 201 200 200 201 200 199 198 199 199 199 201 202 203 205 205 203 203
108 196 243 333 3 338 307 233 122 339 332 350 345 324 309 302 321 303 252 243 241 238 239 236 235 217 197 228 251 264 271 269 276 283 281 284 287 282 273 270 275 278 280 280 271 250 241 242 244 235 224 219 215 212 207 205 205 205 204 204 203 201 199 200 200 200 201 200 200 199 197 198 198 197 197 198 199 199 200 202 203 203 202 201 200 202
139 209 243 298 314 275 261 270 320 321 294 290 285 297 317 320 322 311 272 249 251 252 253 248 246 238 206 212 328 1 350 346 355 354 343 334 328 323 323 322 314 301 292 295 290 270 245 238 242 233 219 214 208 202 201 202 203 203 202 202 202 200 200 199 198 198 198 197 197 196 196 195 195 196 197 197 198 198 199 201 201 200 199 199 201 206
171 189 255 262 259 265 275 283 287 278 265 264 255 201 107 96 329 289 276 310 325 306 299 281 255 236 145 68 48 36 24 18 13 12 5 351 345 343 338 337 334 319 302 294 289 281 268 250 234 207 195 200 201 198 198 199 200 201 202 201 200 200 200 199 197 196 195 194 194 194 194 194 195 195 196 196 197 198 199 200 199 199 200 202 206 209
167 161 245 260 284 298 296 295 280 258 242 244 235 102 86 68 95 135 252 301 317 295 301 302 259 217 124 58 37 22 11 9 6 7 4 351 346 346 340 341 342 333 325 320 317 320 321 331 100 162 185 194 199 197 197 199 199 200 200 198 197 198 199 198 196 194 192 192 192 193 193 194 194 194 194 195 196 198 200 200 200 202 204 206 208 211
163 152 161 256 315 320 318 320 298 235 184 145 110 82 121 188 60 20 265 272 264 261 277 325 268 244 302 351 6 15 5 359 357 358 356 350 346 343 340 342 342 340 335 329 332 351 3 13 38 169 195 195 200 201 201 201 200 198 197 196 197 198 198 197 194 192 191 191 191 192 192 193 193 194 194 195 197 198 200 200 201 203 205 207 209 212
142 173 153 176 240 264 269 261 233 205 294 305 255 237 207 203 324 303 278 247 243 269 295 271 272 287 298 310 328 351 356 352 349 349 347 344 342 339 341 342 340 343 341 331 326 330 342 355 357 198 181 193 202 204 204 202 200 198 197 198 199 199 197 195 192 191 190 190 190 191 192 193 194 194 195 196 198 199 200 200 201 203 206 208 209 211
98 209 206 194 215 231 231 235 236 211 291 278 267 255 239 248 264 247 235 239 252 286 289 251 254 288 292 299 315 330 343 345 341 341 338 335 339 338 338 340 339 342 342 336 328 320 323 329 310 274 222 205 199 201 202 200 198 197 197 199 200 200 197 194 191 191 191 190 190 192 193 195 196 196 197 198 199 200 200 201 203 204 206 207 209 211
114 230 222 203 223 234 226 237 252 249 252 261 268 268 258 248 249 237 231 246 256 275 276 260 259 294 290 293 303 314 329 333 329 330 327 325 333 332 332 338 341 341 342 343 338 328 322 315 302 285 258 239 210 202 201 202 202 199 199 201 200 200 198 195 192 191 192 192 192 193 196 197 198 199 199 200 201 201 201 202 204 205 206 208 209 211
140 231 223 197 231 245 232 236 244 237 242 250 257 265 265 255 254 251 241 243 249 250 265 278 291 290 287 289 293 303 317 315 312 316 314 315 325 326 329 336 338 340 340 341 340 336 326 314 306 291 269 262 239 216 206 204 205 203 203 203 200 199 199 196 194 194 193 194 195 197 198 198 199 200 200 200 201 201 202 203 204 206 207 208 209 209
139 233 224 187 236 255 244 234 234 235 247 254 254 262 269 264 257 253 244 243 249 251 264 280 285 278 274 280 287 297 301 290 295 309 309 314 324 324 328 332 332 335 337 337 339 339 332 322 314 302 289 270 234 219 214 208 207 203 204 205 201 199 199 196 196 196 195 197 199 201 200 199 199 199 199 200 201 201 203 204 204 205 206 206 206 205
185 231 217 165 227 261 249 234 226 227 246 261 265 266 266 263 256 246 240 236 238 246 255 265 273 272 266 272 281 288 286 288 308 311 306 313 322 323 326 326 325 331 336 335 335 337 339 338 331 321 309 293 268 236 216 210 211 208 207 207 205 202 199 196 196 197 199 201 203 202 200 199 199 199 200 201 201 202 203 203 203 203 203 202 202 204
193 220 179 147 202 259 257 223 194 196 260 286 277 260 246 243 244 239 234 229 230 239 246 248 255 265 269 274 278 276 280 304 307 304 303 310 316 318 318 320 324 331 334 332 332 335 339 340 338 333 324 314 304 285 253 225 209 208 211 210 209 206 200 196 196 198 201 204 204 202 201 200 199 199 200 201 201 202 202 202 201 201 200 200 201 203
173 166 157 162 199 257 268 121 131 106 51 288 263 251 238 234 242 249 248 241 236 235 244 249 248 258 270 280 285 283 288 296 292 294 303 306 307 306 307 317 328 330 328 326 326 332 334 333 332 328 325 328 326 312 294 265 226 217 219 215 211 206 200 198 199 200 203 204 204 203 202 201 200 199 200 201 201 202 201 201 200 199 200 201 202 203
166 166 179 172 194 246 183 114 107 97 182 238 258 276 230 221 228 237 240 240 238 234 240 251 255 258 266 272 278 282 286 283 281 289 292 292 294 296 303 319 327 320 323 325 325 330 332 330 330 329 333 341 345 340 329 301 261 252 244 223 212 206 201 201 201 203 206 205 204 204 203 201 201 201 202 202 201 201 200 200 200 199 200 201 201 203
171 175 180 166 187 209 133 102 111 189 215 247 298 314 244 227 228 235 244 246 246 248 246 248 254 258 265 271 273 279 283 282 280 280 277 277 281 289 299 315 317 314 322 327 327 332 335 335 334 333 336 340 344 350 354 347 317 290 266 233 219 210 205 204 202 203 206 206 205 205 202 201 201 202 203 202 200 200 200 201 201 200 200 202 204 206
173 171 173 168 182 187 152 158 204 234 274 299 296 277 252 243 236 237 254 254 245 248 251 252 256 258 265 272 272 273 279 281 278 270 270 280 288 294 302 310 318 320 321 325 328 331 333 335 332 328 330 336 343 352 356 355 348 321 266 236 224 216 210 206 203 204 205 205 205 206 204 203 203 203 203 201 198 199 200 201 202 201 201 203 205 207
172 163 175 189 189 194 213 218 219 300 308 292 275 259 226 216 220 207 237 251 238 237 248 253 258 259 262 268 269 272 280 287 286 278 284 317 324 343 357 347 337 325 317 321 327 327 329 331 330 331 333 339 348 355 353 352 353 342 286 236 220 217 212 207 207 208 207 207 207 206 205 205 204 204 203 200 198 199 201 203 203 202 202 203 203 206
181 173 176 193 201 198 219 233 220 254 261 252 255 255 201 177 217 196 210 266 249 235 247 254 258 260 261 265 269 277 287 288 283 278 40 36 345 7 13 350 333 319 317 325 328 331 335 335 333 337 342 345 351 355 353 351 352 346 319 261 224 216 211 213 217 216 213 213 212 209 208 208 207 205 202 200 200 202 203 203 204 204 204 205 205 208
193 187 180 195 210 198 202 216 212 230 241 241 253 262 155 147 207 132 45 283 253 233 233 240 249 255 258 264 271 278 279 276 277 276 125 286 272 182 165 309 313 316 329 341 342 341 337 334 335 340 348 353 351 352 353 352 349 346 341 333 288 225 216 226 233 229 224 224 221 216 212 210 209 207 204 203 204 205 205 205 205 206 207 207 209 210
201 199 194 200 210 208 211 218 218 233 244 243 251 262 121 144 150 85 53 262 247 226 222 228 239 249 256 264 270 262 248 258 274 298 302 281 270 220 338 340 336 333 343 349 350 348 339 336 340 344 348 350 347 349 354 354 349 345 347 352 345 281 257 262 263 256 243 235 228 222 217 213 211 210 208 208 208 208 207 207 206 206 207 208 209 210
201 203 200 202 212 212 212 221 232 237 242 245 249 227 129 118 95 120 225 252 243 215 216 210 224 240 245 249 248 224 219 232 255 270 280 294 316 343 1 351 341 341 351 353 353 353 346 340 340 340 340 344 346 350 356 355 351 345 344 349 348 328 317 314 306 293 271 251 237 227 221 217 214 214 214 214 213 210 208 208 207 208 208 208 207 208
190 200 202 204 210 209 207 223 248 254 238 236 236 175 128 118 141 221 233 243 191 224 220 201 222 232 222 219 224 220 224 242 248 250 253 273 323 339 342 344 346 351 355 356 358 358 352 342 338 337 338 344 350 353 356 356 351 345 343 345 342 335 332 329 326 317 298 274 251 235 227 222 219 218 218 218 216 213 209 208 208 209 208 206 205 205
185 182 194 201 198 197 202 211 234 246 232 220 211 160 145 178 218 235 245 249 227 231 224 219 230 228 206 212 225 225 234 254 261 259 253 250 294 333 343 343 344 346 351 354 356 358 352 339 333 334 335 341 350 354 357 357 351 345 344 340 336 335 332 329 329 326 311 289 266 247 237 229 225 223 221 219 218 215 212 209 207 207 206 205 204 204
169 170 192 203 191 188 201 204 215 234 229 199 187 190 195 205 215 214 215 233 238 227 214 226 236 219 203 216 223 220 227 241 255 261 262 269 302 336 347 343 342 342 348 350 349 353 353 340 330 329 329 338 349 355 359 360 353 347 345 339 336 337 335 330 326 322 315 300 276 256 245 236 231 226 223 221 218 215 212 209 206 205 205 205 203 202
187 188 193 198 193 196 209 215 223 237 233 166 183 200 196 208 222 204 197 228 242 219 201 225 242 229 216 218 221 221 218 219 233 245 243 244 284 323 332 341 354 352 348 347 348 350 350 342 334 329 327 334 346 355 1 2 358 354 348 341 339 340 338 334 327 319 316 310 289 267 251 239 233 229 224 221 218 213 209 207 204 202 202 202 201 200
199 187 166 144 190 210 243 259 240 238 226 188 207 211 187 201 219 208 206 230 233 203 194 211 228 233 228 224 230 239 231 223 228 229 202 200 241 315 332 341 359 2 356 351 349 349 347 342 339 335 329 333 343 353 359 1 2 0 350 345 346 345 341 338 331 321 318 316 303 282 259 241 233 229 225 222 219 216 212 208 205 202 200 199 199 200
200 177 157 143 164 180 221 232 226 229 213 180 191 214 211 213 212 192 197 218 216 203 205 217 229 236 230 217 220 238 243 236 241 243 202 166 174 334 353 350 354 5 4 352 346 346 345 342 340 338 333 333 340 348 352 356 2 1 353 352 354 353 348 345 338 327 320 319 314 296 264 243 233 227 223 220 218 216 214 211 208 203 199 198 197 197
185 168 158 165 172 175 211 222 208 206 195 175 184 198 199 207 215 210 214 227 231 228 224 226 232 236 231 213 207 222 236 231 231 246 227 133 116 38 20 360 348 355 357 351 349 348 345 341 336 334 334 336 339 342 344 349 357 359 356 356 356 355 352 349 343 333 322 318 317 305 276 250 235 225 220 218 216 213 212 211 209 206 205 204 201 199
127 150 160 174 183 197 257 242 173 133 227 211 200 208 208 197 203 221 235 236 238 239 237 237 236 230 227 219 200 201 220 224 215 213 167 114 91 57 35 359 345 344 343 348 352 347 342 338 332 330 336 340 339 338 339 344 353 356 356 357 359 358 352 344 340 335 327 321 316 309 293 266 243 229 220 216 216 216 215 215 214 213 214 214 212 209
138 169 166 152 173 212 244 229 184 171 235 229 203 212 220 201 193 218 234 237 241 238 226 228 242 242 241 249 226 205 208 203 159 125 108 92 71 53 30 359 345 339 338 346 349 344 340 336 331 333 339 341 339 336 336 341 348 353 354 356 0 1 355 343 335 331 330 326 320 314 305 281 255 239 225 217 215 216 218 220 221 220 220 221 221 220
178 179 162 161 191 215 224 200 149 147 227 240 217 212 208 185 193 221 233 240 250 245 209 203 235 247 242 34 25 24 141 100 73 75 84 73 54 39 20 3 350 339 339 343 346 346 341 335 334 342 345 343 340 337 334 337 343 350 354 356 359 2 357 348 336 326 327 328 322 318 313 294 267 248 233 222 217 214 214 218 222 224 225 226 227 227
Height
784 788 787 782 778 777 779 780 778 777 777 777 778 779 776 773 765 757 759 757 756 758 752 750 746 739 741 743 741 737 733 733 732 733 733 730 728 727 726 724 723 721 716 713 713 713 714 714 715 717 719 721 722 723 725 727 727 728 730 733 734 737 740 743 745 748 750 752 754 756 758 760 762 765 768 770 772 773 774 776 778 780 782 783 784 785
788 792 782 775 775 775 776 777 777 779 779 780 781 780 779 777 770 763 762 759 759 759 748 745 747 741 738 740 740 738 734 727 726 730 728 724 723 721 721 720 718 717 713 711 712 711 711 711 712 714 715 716 717 718 720 720 721 723 725 727 729 732 735 737 739 742 744 746 748 750 753 756 759 762 764 766 767 770 772 774 775 777 779 780 782 783
793 790 778 774 775 773 774 774 776 778 779 781 782 782 778 770 768 767 763 760 762 761 750 748 749 739 735 739 737 735 731 720 720 726 723 720 719 716 714 714 713 712 711 709 708 708 708 707 708 710 710 711 712 712 714 715 717 719 721 722 725 728 730 732 735 737 739 741 744 747 750 753 756 758 760 762 765 767 769 771 773 775 776 778 779 780
791 781 773 774 774 773 774 774 776 779 781 782 782 783 774 764 768 768 761 760 761 759 754 755 753 740 735 738 733 730 727 719 720 721 718 718 716 711 709 709 709 708 706 704 703 703 704 704 705 705 705 706 707 708 709 712 713 714 715 716 719 722 724 727 730 733 735 739 743 746 749 752 754 756 758 761 763 764 767 768 770 772 774 775 776 778
785 771 768 772 772 772 774 774 777 781 782 781 778 777 770 764 769 767 761 760 758 756 754 758 755 735 725 732 727 723 726 721 718 717 715 716 712 707 707 705 703 703 701 698 696 698 700 700 700 699 700 700 701 703 704 706 706 706 708 710 714 718 720 723 726 730 734 737 741 744 747 750 752 754 756 757 759 761 763 764 766 769 771 773 773 775
780 768 769 772 771 771 772 772 775 777 778 776 773 769 765 765 768 766 763 761 761 758 750 753 755 728 710 720 719 715 720 715 711 713 708 706 706 704 704 700 698 698 696 694 692 693 694 694 694 694 695 696 697 697 697 699 699 700 703 707 710 714 716 719 722 726 730 733 736 739 741 743 746 748 749 750 752 755 757 759 762 766 768 770 771 772
772 765 769 771 769 770 771 771 768 770 776 772 762 759 762 767 769 766 763 764 766 759 748 750 755 733 706 707 710 709 714 707 704 708 699 694 698 699 697 694 693 693 691 690 688 688 688 687 688 689 689 690 690 689 692 694 695 697 700 703 705 708 711 714 718 722 725 728 731 732 734 735 738 740 741 743 747 750 753 756 759 763 765 767 768 769
762 764 768 769 768 769 770 769 762 763 771 763 751 752 758 763 766 764 763 765 760 752 751 750 752 741 710 694 699 704 710 707 702 702 694 689 692 693 692 691 689 688 685 684 683 681 681 680 682 682 681 683 682 684 688 689 691 693 695 698 700 704 707 710 714 717 719 722 725 727 729 731 732 734 736 739 743 747 750 754 756 759 762 764 765 767
757 763 765 765 767 768 764 760 756 759 764 755 748 751 751 754 759 758 760 763 757 754 757 750 748 746 713 687 697 706 706 702 694 692 690 688 689 688 689 688 684 682 679 678 676 675 675 675 675 676 676 677 678 681 683 684 686 689 691 695 698 700 703 706 710 712 715 717 720 723 725 727 728 731 734 737 741 744 747 750 753 756 759 761 763 764
761 762 763 765 765 763 758 752 751 755 758 750 748 752 748 750 754 755 759 762 760 760 757 746 745 747 714 684 696 707 701 692 683 684 687 685 685 685 685 684 680 677 675 674 671 670 670 669 669 671 672 674 675 677 679 681 684 686 688 692 694 696 699 702 705 708 711 714 717 719 721 722 725 729 732 735 738 741 744 746 749 752 755 758 759 761
765 763 765 768 763 757 752 750 749 750 751 746 749 754 752 751 751 754 758 758 762 763 752 739 738 744 720 685 686 694 686 682 680 679 680 679 679 678 678 678 675 673 671 669 667 665 664 665 666 669 670 670 671 674 676 678 680 681 684 687 689 692 695 698 701 704 707 710 713 715 716 718 721 725 728 731 734 737 740 742 745 748 751 754 756 758
766 767 765 761 757 754 752 752 749 746 746 746 750 755 759 757 751 756 760 758 765 758 737 729 734 745 729 689 680 683 674 677 679 675 674 675 674 673 674 674 672 669 667 665 665 662 662 663 665 666 665 665 669 670 671 673 675 677 679 682 685 688 691 693 697 699 702 706 708 710 713 715 717 720 722 725 728 731 734 737 740 744 747 750 752 755
763 762 759 755 750 750 753 754 751 747 747 748 749 755 764 762 754 759 759 754 757 744 724 724 732 742 730 693 681 684 677 677 678 675 676 675 672 670 670 671 669 668 666 665 664 662 661 662 662 663 662 663 665 665 666 668 670 673 675 678 680 682 685 689 692 695 698 700 703 705 708 711 714 716 718 720 723 726 729 733 736 739 742 745 747 750
763 753 752 754 749 747 749 752 753 749 747 748 747 751 760 758 753 756 749 743 746 733 719 724 731 735 722 688 674 681 679 677 674 672 672 671 669 668 667 668 668 667 666 664 663 661 660 659 659 660 660 661 661 661 663 665 666 669 671 674 676 678 681 685 687 690 693 695 698 701 704 707 710 712 714 717 719 722 726 728 731 734 737 739 742 744
769 759 753 753 753 753 751 747 747 744 742 742 737 739 745 742 742 742 734 733 736 724 719 729 731 724 704 675 665 671 672 673 671 667 666 667 666 666 666 666 665 664 663 662 661 660 658 657 656 657 657 657 657 658 659 661 662 665 667 669 671 674 677 680 683 686 688 691 694 698 701 703 706 709 711 714 716 719 722 725 727 730 733 735 738 741
773 763 755 757 756 757 758 751 748 747 744 738 732 736 737 728 727 727 722 721 723 720 720 726 722 705 684 667 662 666 666 668 670 667 668 668 664 664 664 661 659 658 657 656 656 656 655 655 654 653 654 654 654 655 656 656 658 660 662 665 667 670 673 676 679 682 684 688 691 693 696 699 702 705 708 711 713 716 719 722 724 727 730 733 735 739
780 766 759 763 757 753 758 756 752 753 748 738 733 733 725 716 718 724 722 715 719 724 714 706 708 702 687 668 658 662 665 665 666 662 663 664 661 662 662 659 658 656 653 652 651 652 652 651 651 650 650 650 650 651 652 652 653 655 657 660 664 667 670 673 675 678 681 684 687 689 692 696 698 701 704 706 709 713 716 719 722 725 728 731 734 737
787 779 767 764 759 753 755 755 748 746 748 746 740 730 720 716 719 727 730 720 721 726 706 688 695 701 695 673 656 659 663 662 662 659 657 657 656 658 656 655 657 654 652 651 648 649 649 648 649 648 648 647 646 647 648 650 651 652 654 656 659 663 665 668 671 674 677 680 683 686 689 692 694 697 701 704 707 710 714 717 720 723 726 728 732 734
790 791 772 761 762 757 753 756 749 739 743 748 743 736 734 734 729 728 730 721 717 718 703 688 688 691 689 674 659 661 662 660 662 660 659 657 654 655 652 649 650 648 647 646 645 646 646 645 645 645 645 645 645 646 646 649 651 652 654 655 657 660 662 665 669 671 675 677 680 683 685 689 692 695 698 701 705 708 710 713 717 720 723 726 729 732
789 795 782 764 762 762 756 757 756 749 747 747 744 742 741 740 733 725 721 714 711 709 699 691 687 683 678 668 661 663 663 661 661 658 656 654 651 651 650 647 645 643 642 641 640 642 640 640 640 640 642 642 643 645 645 648 650 651 653 654 656 659 661 664 667 669 672 675 678 680 683 686 689 692 696 699 702 705 707 711 714 717 721 723 726 729
788 795 790 772 765 771 765 756 758 761 759 757 757 755 751 747 743 735 724 712 709 708 697 690 686 674 664 660 659 662 663 663 662 661 659 655 650 649 648 648 647 644 643 641 639 640 639 638 638 639 641 642 642 644 645 647 648 649 651 653 655 657 659 662 664 667 670 672 676 678 680 684 687 690 694 696 699 702 705 709 712 715 718 721 723 726
789 789 789 782 777 778 769 757 757 761 763 763 763 763 762 762 758 751 735 714 711 714 702 692 687 668 655 660 668 677 681 680 681 681 679 674 668 664 660 659 657 652 649 645 641 639 638 638 638 638 640 642 643 643 644 646 647 649 650 651 654 656 657 659 662 665 668 671 674 676 678 682 685 688 691 693 696 700 703 706 710 713 716 718 721 723
782 785 788 787 782 775 768 762 760 760 762 761 761 762 767 769 767 767 758 740 742 745 724 708 695 670 662 677 687 694 698 696 695 694 692 687 682 677 672 667 664 658 653 649 643 640 638 637 638 639 640 641 642 643 644 645 646 647 649 650 653 655 656 659 661 663 666 669 672 675 677 680 682 685 688 691 694 697 700 704 707 710 713 715 718 720
778 785 789 787 781 773 767 764 761 760 761 761 761 765 770 771 769 774 773 766 770 764 740 726 706 671 666 687 694 694 698 697 696 695 693 690 684 679 675 670 667 662 657 651 646 642 641 640 639 639 640 640 641 642 643 644 645 647 648 650 652 653 656 658 660 662 665 667 670 673 676 678 680 683 685 688 691 694 698 702 705 708 710 713 716 718
778 783 787 790 788 782 772 763 758 760 761 762 764 768 771 771 772 775 775 775 776 760 745 751 733 686 671 687 695 697 701 699 697 696 695 692 688 682 678 674 671 666 661 656 649 644 643 642 641 641 640 641 642 642 642 644 645 646 647 649 651 653 655 657 659 661 663 665 668 671 673 676 678 681 683 686 689 692 696 699 702 705 708 710 713 716
776 778 781 788 793 790 779 764 756 760 764 766 767 768 768 768 772 775 775 777 773 755 748 761 750 712 692 693 696 700 704 703 701 699 696 693 690 685 680 677 674 669 664 661 656 650 645 643 643 642 642 642 642 642 643 644 645 646 647 649 650 652 654 656 657 660 662 664 666 668 671 674 676 679 682 684 687 690 694 697 700 703 705 708 711 713
777 777 774 778 782 780 774 762 756 763 769 769 767 766 766 766 767 769 773 774 769 760 756 753 745 731 714 703 701 705 708 708 706 703 700 695 691 686 682 680 677 672 668 664 660 655 649 646 645 644 643 643 642 642 643 643 644 646 647 648 649 651 653 655 657 659 661 662 665 667 669 671 674 677 680 683 686 689 692 695 697 700 703 705 708 711
775 776 772 774 772 768 768 764 762 766 769 767 766 764 764 764 764 766 770 765 761 765 760 742 739 743 726 709 710 711 711 711 710 707 703 698 694 689 685 683 679 675 672 668 665 660 654 649 646 645 645 644 643 643 643 643 644 644 645 646 648 650 652 654 656 658 660 661 663 665 667 670 673 675 679 682 685 688 691 693 696 698 701 703 706 708
771 773 770 773 771 766 767 767 765 767 766 764 764 763 761 762 762 764 764 758 757 765 758 740 742 749 732 714 713 715 715 714 710 707 704 700 697 693 688 686 682 680 677 674 672 667 662 656 650 647 646 645 646 645 644 645 644 644 645 645 647 649 650 653 655 657 659 661 662 664 666 669 672 675 678 681 684 687 689 691 694 696 699 701 703 705
766 767 766 772 772 766 766 766 764 766 767 765 764 761 759 759 758 757 757 754 755 759 754 744 745 745 731 716 711 712 716 713 709 707 703 700 698 694 691 689 685 683 682 680 677 673 669 665 659 654 650 647 646 646 645 645 644 645 645 645 647 648 649 652 655 657 659 660 662 664 666 668 671 674 677 680 682 685 688 690 692 695 697 699 701 704
763 762 762 769 774 766 760 763 767 768 768 767 766 763 759 757 755 754 752 751 752 753 749 745 744 737 722 713 711 711 712 709 707 706 702 699 698 695 693 691 687 685 686 684 681 677 672 668 665 661 656 651 648 646 644 643 644 644 645 646 647 648 649 651 654 656 659 660 662 664 666 668 671 673 676 678 681 683 686 688 690 692 695 697 699 702
761 764 762 768 776 767 757 763 769 768 770 771 767 761 758 754 751 747 745 743 745 746 744 742 742 731 714 708 710 708 708 709 707 705 703 700 698 696 694 692 689 688 688 686 683 680 676 672 669 665 661 657 654 649 646 644 643 644 644 645 646 648 650 652 653 656 658 659 662 664 665 667 670 672 674 677 679 682 684 686 688 690 693 695 697 700
758 762 763 768 774 766 761 766 767 768 777 774 756 744 745 748 747 744 741 737 735 736 737 735 732 722 710 707 709 707 707 710 707 704 704 701 698 697 695 693 692 691 690 688 685 682 679 676 672 668 664 660 657 654 650 647 644 642 641 643 645 647 650 652 653 655 657 658 661 662 664 667 668 671 673 675 677 680 682 684 686 688 690 692 695 698
756 758 762 767 766 765 768 768 766 775 779 759 734 729 735 739 740 740 736 731 727 727 727 724 720 715 710 709 710 707 706 707 705 703 702 700 698 696 694 694 695 693 691 689 686 683 680 677 673 669 664 661 658 655 651 648 646 643 642 643 644 646 648 650 652 654 656 658 660 661 663 665 667 669 671 673 676 678 680 682 684 686 688 690 693 695
754 757 762 765 761 764 771 769 768 773 764 741 729 730 732 730 730 731 730 726 724 723 721 718 716 713 710 708 708 707 703 701 701 700 699 699 697 695 694 695 695 693 692 690 687 684 681 678 674 669 665 662 659 655 651 649 647 645 643 643 644 645 646 648 650 652 654 657 659 661 662 664 666 668 670 672 674 676 678 680 681 684 686 688 691 693
748 753 756 758 758 762 768 768 762 754 745 738 734 730 729 729 729 732 733 727 722 721 719 717 714 711 708 705 704 703 700 698 698 698 697 697 696 695 696 695 694 694 692 690 688 685 682 680 676 672 668 663 660 655 651 649 648 646 644 644 644 645 646 648 650 651 653 655 657 659 661 662 664 666 668 670 672 674 676 677 679 681 684 686 688 691
738 746 748 751 753 753 757 761 756 751 749 743 730 717 718 723 723 728 733 725 717 717 717 715 713 710 706 703 701 699 699 698 697 696 697 698 697 696 696 695 695 695 692 690 689 686 684 681 677 673 669 663 659 656 653 651 649 648 647 646 646 646 647 649 650 650 651 653 654 656 658 660 661 663 665 667 669 671 672 674 676 679 681 684 686 688
728 735 739 744 745 745 752 758 757 757 752 737 717 705 708 716 716 719 728 726 716 713 714 712 711 708 704 702 700 699 701 702 699 696 698 700 699 697 697 696 696 695 693 692 689 686 683 680 677 674 669 664 661 659 656 654 652 651 650 649 647 648 649 649 648 649 650 651 652 653 655 657 659 660 662 664 665 667 669 671 674 676 679 681 683 685
724 727 731 738 740 742 750 754 751 748 738 721 707 702 707 716 714 717 734 734 714 705 708 708 707 705 702 701 700 701 705 706 699 695 698 700 698 697 697 697 696 695 694 692 690 687 684 680 678 675 671 667 664 662 660 657 655 654 653 651 649 648 648 648 648 648 649 649 650 651 653 655 656 658 660 661 662 664 666 669 671 674 677 679 681 683
724 725 729 736 736 734 739 743 740 733 722 708 703 705 710 712 712 728 745 730 700 695 703 702 702 703 701 700 700 701 704 703 698 696 698 698 697 696 696 695 694 694 693 692 691 689 685 682 679 676 673 671 668 665 663 660 657 656 655 653 651 649 648 648 648 648 649 649 650 651 652 653 655 657 658 659 660 662 664 667 669 672 675 677 680 682
719 720 722 727 729 727 729 732 728 719 708 700 700 705 708 711 721 736 733 707 689 695 701 698 699 700 698 699 699 698 698 698 698 698 697 696 695 694 694 694 694 693 692 692 691 689 686 683 681 679 676 674 672 668 665 662 660 659 657 654 652 650 649 648 648 648 649 649 650 651 651 652 653 655 657 658 660 662 663 665 667 670 672 675 678 681
715 716 715 717 720 721 721 723 723 714 698 691 696 702 705 716 725 720 703 690 692 697 697 696 696 694 694 696 695 694 694 694 695 696 695 695 694 693 693 692 692 691 691 690 689 688 686 683 682 680 678 675 673 670 668 665 663 661 658 656 652 650 649 648 647 647 647 647 648 649 650 651 652 653 655 657 659 661 663 664 666 668 670 673 676 678
694 703 708 707 708 714 719 723 722 706 683 678 692 702 704 707 706 696 689 692 694 693 694 695 692 691 693 694 693 693 693 692 692 692 692 693 692 692 693 692 691 691 690 689 689 688 687 684 682 681 679 677 674 672 669 667 665 662 660 657 653 650 648 647 646 646 645 645 645 646 647 648 649 651 652 655 657 659 661 663 665 667 669 671 674 676
683 693 699 696 694 702 710 706 693 677 667 672 686 693 692 690 686 685 690 693 691 692 695 693 690 692 693 691 691 692 691 691 691 689 689 690 690 690 691 691 691 690 689 688 687 687 687 686 684 682 681 678 675 673 670 668 666 663 661 657 653 650 647 646 645 644 644 644 643 644 645 645 647 648 650 652 654 657 659 661 663 665 667 669 671 674
672 671 674 675 676 679 681 676 668 664 669 676 679 679 681 683 683 685 688 687 687 691 694 691 689 690 690 689 690 691 690 690 689 687 688 689 688 688 689 689 689 689 687 686 685 684 684 685 685 684 681 678 675 673 670 669 666 664 662 658 654 650 647 645 644 642 642 642 642 642 643 643 644 646 647 649 652 653 655 658 660 662 664 666 668 671
656 658 662 667 672 674 673 671 669 670 673 677 678 678 679 681 681 683 686 686 686 688 689 689 688 686 688 689 689 688 688 688 686 687 688 688 687 687 687 686 686 687 686 684 683 683 682 683 684 684 681 678 675 672 670 668 666 665 663 660 656 651 647 645 643 641 640 641 641 641 641 641 642 643 645 647 649 650 652 654 656 659 661 663 665 667
656 660 663 666 673 679 677 670 668 670 672 675 677 678 678 680 681 682 684 683 682 683 684 685 684 683 685 686 686 686 686 685 685 686 687 687 688 688 686 686 686 686 686 685 683 683 683 683 683 682 679 676 674 672 669 667 666 664 663 661 658 654 650 646 644 642 640 639 639 640 640 640 639 640 642 644 646 648 650 652 653 656 657 659 661 663
654 658 663 666 670 673 669 664 665 670 672 673 675 676 677 679 679 681 682 681 680 681 682 682 682 682 682 682 683 684 684 684 684 684 685 687 689 688 688 689 689 689 689 687 686 686 685 685 684 682 679 676 673 671 669 666 664 663 661 659 657 654 651 649 647 644 642 640 639 639 639 639 638 638 639 641 643 645 647 649 651 652 652 653 655 657
652 657 661 663 665 667 664 662 666 671 671 671 672 673 674 676 677 678 679 679 679 680 680 680 680 680 680 680 680 681 682 683 683 683 685 688 689 690 691 692 692 692 691 689 689 689 688 687 685 682 679 676 673 671 668 665 663 661 659 658 655 652 649 647 646 645 643 642 640 639 638 638 637 636 636 638 640 642 643 645 646 647 648 649 651 652
650 654 657 661 666 667 661 657 661 667 667 666 667 669 670 673 676 676 676 676 676 677 678 678 678 678 678 679 680 680 680 681 683 685 687 688 690 692 694 694 694 693 691 689 689 689 688 687 685 681 679 676 674 671 668 665 663 660 658 656 653 650 648 645 643 643 642 641 640 639 638 637 636 636 635 635 637 639 641 643 644 645 646 648 649 651
643 646 651 656 659 658 654 653 657 662 662 661 662 665 667 670 672 674 674 673 672 673 675 677 677 676 678 680 682 682 681 683 686 688 688 691 694 694 695 695 694 693 691 689 688 686 685 683 681 679 678 676 674 672 669 666 663 660 658 655 652 650 649 647 645 643 641 639 638 636 635 635 635 635 635 635 635 637 639 641 643 644 645 646 648 650